Tracking 35334 objects as of 13-Sep-2026
HD Live streaming from Space Station
objects crossing your sky now

SL-12 DEB


SL-12 DEB is no longer on orbit


NORAD ID: 28734
Int'l Code: 2002-037AK
Launch date: July 25, 2002
Source: Commonwealth of Independent States (former USSR) (CIS)
Launch site: TYURATAM MISSILE AND SPACE COMPLEX (TTMTR)
Decay date: 2005-10-03

Note: This is SATELLITE DEBRIS
Your satellite tracking list
Your tracking list is empty




NASA's NSSDC Master Catalog

Two Line Element Set (TLE):
1 28734U 02037AK  05274.86670270  .03917848  79790-5  11076-2 0  9994
2 28734 063.7607 071.2891 0050321 101.8495 258.7672 16.23553671 14339
Source of the keplerian elements: AFSPC